Location: Kershaw
(34.5481°N, 80.5823°W)
Time: 04:01:30
(UTC+00:00)

Altair - Pass Details

Date: 04 October 2022
Orbit: 1501 x 1682 km, 47.2° (Epoch: 01 December)

Event Time Altitude Azimuth Distance (km) Brightness Sun altitude
Rises 16:15:32 0° 305° (NW) 4,911 9.8 48.8°
Reaches altitude 10° 16:18:41 10° 305° (NW) 3,933 9.4 49.0°
Maximum altitude 16:28:52 84° 219° (SW) 1,692 8.8 49.7°
Drops below altitude 10° 16:38:59 10° 132° (SE) 3,910 10.3 50.2°
Sets 16:42:05 0° 132° (SE) 4,880 10.6 50.3°
